Year,Month,Day,Hour,Minute,Value (Times are PST for temperature in C)
2020,05,04,00,00,9.00
2020,05,04,00,01,8.90
2020,05,04,00,02,8.90
2020,05,04,00,03,8.90
2020,05,04,00,04,8.90
2020,05,04,00,05,8.90
2020,05,04,00,06,8.90
2020,05,04,00,07,8.90
2020,05,04,00,08,8.90
2020,05,04,00,09,8.90
2020,05,04,00,10,8.90
2020,05,04,00,11,9.00
2020,05,04,00,12,9.00
2020,05,04,00,13,9.00
2020,05,04,00,14,9.00
2020,05,04,00,15,9.10
2020,05,04,00,16,9.10
2020,05,04,00,17,9.10
2020,05,04,00,18,9.20
2020,05,04,00,19,9.20
2020,05,04,00,20,9.20
2020,05,04,00,21,9.20
2020,05,04,00,22,9.20
2020,05,04,00,23,9.20
2020,05,04,00,24,9.20
2020,05,04,00,25,9.20
2020,05,04,00,26,9.20
2020,05,04,00,27,9.20
2020,05,04,00,28,9.20
2020,05,04,00,29,9.10
2020,05,04,00,30,9.10
2020,05,04,00,31,9.00
2020,05,04,00,32,9.00
2020,05,04,00,33,9.00
2020,05,04,00,34,9.00
2020,05,04,00,35,9.00
2020,05,04,00,36,8.90
2020,05,04,00,37,8.90
2020,05,04,00,38,8.90
2020,05,04,00,39,8.90
2020,05,04,00,40,8.80
2020,05,04,00,41,8.80
2020,05,04,00,42,8.70
2020,05,04,00,43,8.70
2020,05,04,00,44,8.70
2020,05,04,00,45,8.60
2020,05,04,00,46,8.60
2020,05,04,00,47,8.50
2020,05,04,00,48,8.50
2020,05,04,00,49,8.40
2020,05,04,00,50,8.40
2020,05,04,00,51,8.40
2020,05,04,00,52,8.40
2020,05,04,00,53,8.30
2020,05,04,00,54,8.30
2020,05,04,00,55,8.30
2020,05,04,00,56,8.30
2020,05,04,00,57,8.20
2020,05,04,00,58,8.20
2020,05,04,00,59,8.20
2020,05,04,01,00,8.20
2020,05,04,01,01,8.20
2020,05,04,01,02,8.20
2020,05,04,01,03,8.10
2020,05,04,01,04,8.10
2020,05,04,01,05,8.10
2020,05,04,01,06,8.10
2020,05,04,01,07,8.10
2020,05,04,01,08,8.10
2020,05,04,01,09,8.10
2020,05,04,01,10,8.10
2020,05,04,01,11,8.10
2020,05,04,01,12,8.10
2020,05,04,01,13,8.10
2020,05,04,01,14,8.00
2020,05,04,01,15,8.00
2020,05,04,01,16,8.00
2020,05,04,01,17,7.90
2020,05,04,01,18,7.90
2020,05,04,01,19,7.90
2020,05,04,01,20,7.90
2020,05,04,01,21,8.00
2020,05,04,01,22,8.00
2020,05,04,01,23,8.00
2020,05,04,01,24,8.00
2020,05,04,01,25,8.00
2020,05,04,01,26,8.00
2020,05,04,01,27,7.90
2020,05,04,01,28,7.90
2020,05,04,01,29,7.90
2020,05,04,01,30,7.90
2020,05,04,01,31,7.90
2020,05,04,01,32,7.90
2020,05,04,01,33,7.90
2020,05,04,01,34,7.80
2020,05,04,01,35,7.80
2020,05,04,01,36,7.80
2020,05,04,01,37,7.80
2020,05,04,01,38,7.90
2020,05,04,01,39,7.90
2020,05,04,01,40,7.90
2020,05,04,01,41,7.90
2020,05,04,01,42,7.90
2020,05,04,01,43,7.90
2020,05,04,01,44,7.90
2020,05,04,01,45,7.90
2020,05,04,01,46,7.90
2020,05,04,01,47,7.90
2020,05,04,01,48,7.90
2020,05,04,01,49,7.90
2020,05,04,01,50,7.90
2020,05,04,01,51,7.90
2020,05,04,01,52,7.90
2020,05,04,01,53,7.90
2020,05,04,01,54,7.80
2020,05,04,01,55,7.80
2020,05,04,01,56,7.80
2020,05,04,01,57,7.80
2020,05,04,01,58,7.80
2020,05,04,01,59,7.80
2020,05,04,02,00,7.90
2020,05,04,02,01,7.80
2020,05,04,02,02,7.80
2020,05,04,02,03,7.80
2020,05,04,02,04,7.80
2020,05,04,02,05,7.80
2020,05,04,02,06,7.80
2020,05,04,02,07,7.80
2020,05,04,02,08,7.80
2020,05,04,02,09,7.90
2020,05,04,02,10,7.90
2020,05,04,02,11,7.80
2020,05,04,02,12,7.80
2020,05,04,02,13,7.80
2020,05,04,02,14,7.80
2020,05,04,02,15,7.80
2020,05,04,02,16,7.80
2020,05,04,02,17,7.80
2020,05,04,02,18,7.80
2020,05,04,02,19,7.80
2020,05,04,02,20,7.80
2020,05,04,02,21,7.70
2020,05,04,02,22,7.70
2020,05,04,02,23,7.70
2020,05,04,02,24,7.80
2020,05,04,02,25,7.80
2020,05,04,02,26,7.80
2020,05,04,02,27,7.80
2020,05,04,02,28,7.80
2020,05,04,02,29,7.80
2020,05,04,02,30,7.80
2020,05,04,02,31,7.80
2020,05,04,02,32,7.80
2020,05,04,02,33,7.80
2020,05,04,02,34,7.90
2020,05,04,02,35,7.90
2020,05,04,02,36,7.80
2020,05,04,02,37,7.80
2020,05,04,02,38,7.80
2020,05,04,02,39,7.80
2020,05,04,02,40,7.80
2020,05,04,02,41,7.70
2020,05,04,02,42,7.70
2020,05,04,02,43,7.70
2020,05,04,02,44,7.70
2020,05,04,02,45,7.70
2020,05,04,02,46,7.60
2020,05,04,02,47,7.60
2020,05,04,02,48,7.60
2020,05,04,02,49,7.60
2020,05,04,02,50,7.60
2020,05,04,02,51,7.60
2020,05,04,02,52,7.50
2020,05,04,02,53,7.50
2020,05,04,02,54,7.50
2020,05,04,02,55,7.50
2020,05,04,02,56,7.50
2020,05,04,02,57,7.40
2020,05,04,02,58,7.40
2020,05,04,02,59,7.40
2020,05,04,03,00,7.40
2020,05,04,03,01,7.40
2020,05,04,03,02,7.30
2020,05,04,03,03,7.30
2020,05,04,03,04,7.30
2020,05,04,03,05,7.30
2020,05,04,03,06,7.30
2020,05,04,03,07,7.30
2020,05,04,03,08,7.30
2020,05,04,03,09,7.30
2020,05,04,03,10,7.30
2020,05,04,03,11,7.30
2020,05,04,03,12,7.30
2020,05,04,03,13,7.30
2020,05,04,03,14,7.40
2020,05,04,03,15,7.40
2020,05,04,03,16,7.40
2020,05,04,03,17,7.40
2020,05,04,03,18,7.40
2020,05,04,03,19,7.40
2020,05,04,03,20,7.40
2020,05,04,03,21,7.40
2020,05,04,03,22,7.40
2020,05,04,03,23,7.40
2020,05,04,03,24,7.30
2020,05,04,03,25,7.30
2020,05,04,03,26,7.30
2020,05,04,03,27,7.30
2020,05,04,03,28,7.30
2020,05,04,03,29,7.30
2020,05,04,03,30,7.30
2020,05,04,03,31,7.30
2020,05,04,03,32,7.30
2020,05,04,03,33,7.30
2020,05,04,03,34,7.30
2020,05,04,03,35,7.30
2020,05,04,03,36,7.30
2020,05,04,03,37,7.30
2020,05,04,03,38,7.30
2020,05,04,03,39,7.30
2020,05,04,03,40,7.30
2020,05,04,03,41,7.30
2020,05,04,03,42,7.30
2020,05,04,03,43,7.30
2020,05,04,03,44,7.20
2020,05,04,03,45,7.20
2020,05,04,03,46,7.20
2020,05,04,03,47,7.20
2020,05,04,03,48,7.20
2020,05,04,03,49,7.20
2020,05,04,03,50,7.20
2020,05,04,03,51,7.20
2020,05,04,03,52,7.20
2020,05,04,03,53,7.20
2020,05,04,03,54,7.20
2020,05,04,03,55,7.20
2020,05,04,03,56,7.20
2020,05,04,03,57,7.20
2020,05,04,03,58,7.20
2020,05,04,03,59,7.20
2020,05,04,04,00,7.20
2020,05,04,04,01,7.20
2020,05,04,04,02,7.20
2020,05,04,04,03,7.10
2020,05,04,04,04,7.10
2020,05,04,04,05,7.10
2020,05,04,04,06,7.10
2020,05,04,04,07,7.10
2020,05,04,04,08,7.10
2020,05,04,04,09,7.00
2020,05,04,04,10,7.00
2020,05,04,04,11,7.00
2020,05,04,04,12,7.00
2020,05,04,04,13,7.00
2020,05,04,04,14,7.00
2020,05,04,04,15,7.00
2020,05,04,04,16,7.00
2020,05,04,04,17,7.00
2020,05,04,04,18,7.00
2020,05,04,04,19,6.90
2020,05,04,04,20,6.90
2020,05,04,04,21,6.90
2020,05,04,04,22,6.90
2020,05,04,04,23,6.80
2020,05,04,04,24,6.80
2020,05,04,04,25,6.80
2020,05,04,04,26,6.80
2020,05,04,04,27,6.80
2020,05,04,04,28,6.80
2020,05,04,04,29,6.80
2020,05,04,04,30,6.80
2020,05,04,04,31,6.80
2020,05,04,04,32,6.80
2020,05,04,04,33,6.80
2020,05,04,04,34,6.80
2020,05,04,04,35,6.80
2020,05,04,04,36,6.80
2020,05,04,04,37,6.80
2020,05,04,04,38,6.80
2020,05,04,04,39,6.70
2020,05,04,04,40,6.70
2020,05,04,04,41,6.70
2020,05,04,04,42,6.70
2020,05,04,04,43,6.70
2020,05,04,04,44,6.70
2020,05,04,04,45,6.60
2020,05,04,04,46,6.60
2020,05,04,04,47,6.60
2020,05,04,04,48,6.60
2020,05,04,04,49,6.60
2020,05,04,04,50,6.60
2020,05,04,04,51,6.60
2020,05,04,04,52,6.60
2020,05,04,04,53,6.60
2020,05,04,04,54,6.60
2020,05,04,04,55,6.60
2020,05,04,04,56,6.60
2020,05,04,04,57,6.60
2020,05,04,04,58,6.60
2020,05,04,04,59,6.60
2020,05,04,05,00,6.60
2020,05,04,05,01,6.60
2020,05,04,05,02,6.60
2020,05,04,05,03,6.60
2020,05,04,05,04,6.60
2020,05,04,05,05,6.60
2020,05,04,05,06,6.60
2020,05,04,05,07,6.60
2020,05,04,05,08,6.60
2020,05,04,05,09,6.60
2020,05,04,05,10,6.60
2020,05,04,05,11,6.60
2020,05,04,05,12,6.60
2020,05,04,05,13,6.60
2020,05,04,05,14,6.60
2020,05,04,05,15,6.60
2020,05,04,05,16,6.60
2020,05,04,05,17,6.60
2020,05,04,05,18,6.60
2020,05,04,05,19,6.60
2020,05,04,05,20,6.60
2020,05,04,05,21,6.60
2020,05,04,05,22,6.60
2020,05,04,05,23,6.50
2020,05,04,05,24,6.40
2020,05,04,05,25,6.40
2020,05,04,05,26,6.40
2020,05,04,05,27,6.40
2020,05,04,05,28,6.40
2020,05,04,05,29,6.40
2020,05,04,05,30,6.40
2020,05,04,05,31,6.40
2020,05,04,05,32,6.40
2020,05,04,05,33,6.40
2020,05,04,05,34,6.40
2020,05,04,05,35,6.40
2020,05,04,05,36,6.40
2020,05,04,05,37,6.40
2020,05,04,05,38,6.30
2020,05,04,05,39,6.30
2020,05,04,05,40,6.30
2020,05,04,05,41,6.30
2020,05,04,05,42,6.30
2020,05,04,05,43,6.30
2020,05,04,05,44,6.20
2020,05,04,05,45,6.20
2020,05,04,05,46,6.20
2020,05,04,05,47,6.20
2020,05,04,05,48,6.20
2020,05,04,05,49,6.20
2020,05,04,05,50,6.20
2020,05,04,05,51,6.20
2020,05,04,05,52,6.20
2020,05,04,05,53,6.20
2020,05,04,05,54,6.20
2020,05,04,05,55,6.20
2020,05,04,05,56,6.20
2020,05,04,05,57,6.20
2020,05,04,05,58,6.20
2020,05,04,05,59,6.20
2020,05,04,06,00,6.20
2020,05,04,06,01,6.20
2020,05,04,06,02,6.20
2020,05,04,06,03,6.20
2020,05,04,06,04,6.20
2020,05,04,06,05,6.20
2020,05,04,06,06,6.20
2020,05,04,06,07,6.20
2020,05,04,06,08,6.30
2020,05,04,06,09,6.30
2020,05,04,06,10,6.30
2020,05,04,06,11,6.30
2020,05,04,06,12,6.40
2020,05,04,06,13,6.40
2020,05,04,06,14,6.40
2020,05,04,06,15,6.40
2020,05,04,06,16,6.40
2020,05,04,06,17,6.40
2020,05,04,06,18,6.40
2020,05,04,06,19,6.40
2020,05,04,06,20,6.40
2020,05,04,06,21,6.40
2020,05,04,06,22,6.40
2020,05,04,06,23,6.40
2020,05,04,06,24,6.40
2020,05,04,06,25,6.50
2020,05,04,06,26,6.60
2020,05,04,06,27,6.60
2020,05,04,06,28,6.60
2020,05,04,06,29,6.60
2020,05,04,06,30,6.60
2020,05,04,06,31,6.60
2020,05,04,06,32,6.60
2020,05,04,06,33,6.60
2020,05,04,06,34,6.60
2020,05,04,06,35,6.60
2020,05,04,06,36,6.60
2020,05,04,06,37,6.60
2020,05,04,06,38,6.60
2020,05,04,06,39,6.70
2020,05,04,06,40,6.70
2020,05,04,06,41,6.70
2020,05,04,06,42,6.70
2020,05,04,06,43,6.70
2020,05,04,06,44,6.70
2020,05,04,06,45,6.80
2020,05,04,06,46,6.80
2020,05,04,06,47,6.80
2020,05,04,06,48,6.80
2020,05,04,06,49,6.80
2020,05,04,06,50,6.90
2020,05,04,06,51,6.90
2020,05,04,06,52,7.00
2020,05,04,06,53,7.00
2020,05,04,06,54,7.00
2020,05,04,06,55,7.10
2020,05,04,06,56,7.10
2020,05,04,06,57,7.10
2020,05,04,06,58,7.20
2020,05,04,06,59,7.20
2020,05,04,07,00,7.20
2020,05,04,07,01,7.20
2020,05,04,07,02,7.20
2020,05,04,07,03,7.30
2020,05,04,07,04,7.30
2020,05,04,07,05,7.30
2020,05,04,07,06,7.40
2020,05,04,07,07,7.40
2020,05,04,07,08,7.40
2020,05,04,07,09,7.50
2020,05,04,07,10,7.60
2020,05,04,07,11,7.60
2020,05,04,07,12,7.60
2020,05,04,07,13,7.70
2020,05,04,07,14,7.70
2020,05,04,07,15,7.70
2020,05,04,07,16,7.80
2020,05,04,07,17,7.80
2020,05,04,07,18,7.80
2020,05,04,07,19,7.80
2020,05,04,07,20,7.90
2020,05,04,07,21,7.90
2020,05,04,07,22,7.80
2020,05,04,07,23,7.80
2020,05,04,07,24,7.80
2020,05,04,07,25,7.80
2020,05,04,07,26,7.80
2020,05,04,07,27,7.80
2020,05,04,07,28,7.80
2020,05,04,07,29,7.90
2020,05,04,07,30,7.90
2020,05,04,07,31,7.90
2020,05,04,07,32,8.00
2020,05,04,07,33,8.10
2020,05,04,07,34,8.10
2020,05,04,07,35,8.10
2020,05,04,07,36,8.10
2020,05,04,07,37,8.10
2020,05,04,07,38,8.00
2020,05,04,07,39,8.00
2020,05,04,07,40,8.00
2020,05,04,07,41,8.00
2020,05,04,07,42,8.00
2020,05,04,07,43,8.00
2020,05,04,07,44,8.00
2020,05,04,07,45,8.00
2020,05,04,07,46,8.00
2020,05,04,07,47,7.90
2020,05,04,07,48,7.90
2020,05,04,07,49,7.90
2020,05,04,07,50,7.90
2020,05,04,07,51,7.90
2020,05,04,07,52,7.80
2020,05,04,07,53,7.80
2020,05,04,07,54,7.80
2020,05,04,07,55,7.80
2020,05,04,07,56,7.80
2020,05,04,07,57,7.80
2020,05,04,07,58,7.90
2020,05,04,07,59,7.90
2020,05,04,08,00,7.80
2020,05,04,08,01,7.80
2020,05,04,08,02,7.80
2020,05,04,08,03,7.80
2020,05,04,08,04,7.90
2020,05,04,08,05,7.90
2020,05,04,08,06,7.80
2020,05,04,08,07,7.80
2020,05,04,08,08,7.80
2020,05,04,08,09,7.80
2020,05,04,08,10,7.80
2020,05,04,08,11,7.80
2020,05,04,08,12,7.80
2020,05,04,08,13,7.80
2020,05,04,08,14,7.80
2020,05,04,08,15,7.90
2020,05,04,08,16,8.00
2020,05,04,08,17,8.00
2020,05,04,08,18,8.00
2020,05,04,08,19,8.00
2020,05,04,08,20,8.10
2020,05,04,08,21,8.00
2020,05,04,08,22,8.00
2020,05,04,08,23,8.00
2020,05,04,08,24,7.90
2020,05,04,08,25,7.90
2020,05,04,08,26,7.90
2020,05,04,08,27,8.00
2020,05,04,08,28,8.00
2020,05,04,08,29,8.10
2020,05,04,08,30,8.10
2020,05,04,08,31,8.10
2020,05,04,08,32,8.10
2020,05,04,08,33,8.20
2020,05,04,08,34,8.20
2020,05,04,08,35,8.30
2020,05,04,08,36,8.30
2020,05,04,08,37,8.30
2020,05,04,08,38,8.30
2020,05,04,08,39,8.30
2020,05,04,08,40,8.40
2020,05,04,08,41,8.50
2020,05,04,08,42,8.50
2020,05,04,08,43,8.60
2020,05,04,08,44,8.60
2020,05,04,08,45,8.60
2020,05,04,08,46,8.60
2020,05,04,08,47,8.60
2020,05,04,08,48,8.70
2020,05,04,08,49,8.70
2020,05,04,08,50,8.70
2020,05,04,08,51,8.70
2020,05,04,08,52,8.70
2020,05,04,08,53,8.70
2020,05,04,08,54,8.70
2020,05,04,08,55,8.70
2020,05,04,08,56,8.70
2020,05,04,08,57,8.70
2020,05,04,08,58,8.70
2020,05,04,08,59,8.80
2020,05,04,09,00,8.80
2020,05,04,09,01,8.80
2020,05,04,09,02,8.80
2020,05,04,09,03,8.80
2020,05,04,09,04,8.80
2020,05,04,09,05,8.80
2020,05,04,09,06,8.80
2020,05,04,09,07,8.80
2020,05,04,09,08,8.80
2020,05,04,09,09,8.90
2020,05,04,09,10,8.90
2020,05,04,09,11,9.00
2020,05,04,09,12,9.00
2020,05,04,09,13,9.00
2020,05,04,09,14,8.90
2020,05,04,09,15,8.90
2020,05,04,09,16,8.90
2020,05,04,09,17,8.70
2020,05,04,09,18,8.70
2020,05,04,09,19,8.60
2020,05,04,09,20,8.60
2020,05,04,09,21,8.60
2020,05,04,09,22,8.60
2020,05,04,09,23,8.60
2020,05,04,09,24,8.70
2020,05,04,09,25,8.80
2020,05,04,09,26,8.90
2020,05,04,09,27,8.90
2020,05,04,09,28,8.80
2020,05,04,09,29,8.80
2020,05,04,09,30,8.90
2020,05,04,09,31,8.90
2020,05,04,09,32,9.00
2020,05,04,09,33,8.90
2020,05,04,09,34,8.90
2020,05,04,09,35,8.80
2020,05,04,09,36,8.80
2020,05,04,09,37,8.90
2020,05,04,09,38,8.90
2020,05,04,09,39,8.90
2020,05,04,09,40,8.90
2020,05,04,09,41,8.90
2020,05,04,09,42,8.90
2020,05,04,09,43,8.90
2020,05,04,09,44,8.90
2020,05,04,09,45,9.00
2020,05,04,09,46,9.10
2020,05,04,09,47,9.20
2020,05,04,09,48,9.20
2020,05,04,09,49,9.20
2020,05,04,09,50,9.20
2020,05,04,09,51,9.20
2020,05,04,09,52,9.20
2020,05,04,09,53,9.20
2020,05,04,09,54,9.10
2020,05,04,09,55,9.10
2020,05,04,09,56,9.10
2020,05,04,09,57,9.00
2020,05,04,09,58,9.00
2020,05,04,09,59,8.90
2020,05,04,10,00,8.90
2020,05,04,10,01,8.90
2020,05,04,10,02,8.90
2020,05,04,10,03,9.00
2020,05,04,10,04,9.00
2020,05,04,10,05,9.00
2020,05,04,10,06,9.00
2020,05,04,10,07,9.00
2020,05,04,10,08,9.10
2020,05,04,10,09,9.20
2020,05,04,10,10,9.20
2020,05,04,10,11,9.20
2020,05,04,10,12,9.20
2020,05,04,10,13,9.20
2020,05,04,10,14,9.20
2020,05,04,10,15,9.20
2020,05,04,10,16,9.20
2020,05,04,10,17,9.20
2020,05,04,10,18,9.20
2020,05,04,10,19,9.20
2020,05,04,10,20,9.20
2020,05,04,10,21,9.20
2020,05,04,10,22,9.20
2020,05,04,10,23,9.20
2020,05,04,10,24,9.20
2020,05,04,10,25,9.20
2020,05,04,10,26,9.20
2020,05,04,10,27,9.20
2020,05,04,10,28,9.20
2020,05,04,10,29,9.10
2020,05,04,10,30,9.00
2020,05,04,10,31,9.00
2020,05,04,10,32,8.90
2020,05,04,10,33,8.80
2020,05,04,10,34,8.80
2020,05,04,10,35,8.80
2020,05,04,10,36,8.70
2020,05,04,10,37,8.70
2020,05,04,10,38,8.80
2020,05,04,10,39,8.80
2020,05,04,10,40,8.90
2020,05,04,10,41,8.90
2020,05,04,10,42,8.90
2020,05,04,10,43,8.90
2020,05,04,10,44,9.00
2020,05,04,10,45,9.00
2020,05,04,10,46,9.10
2020,05,04,10,47,9.20
2020,05,04,10,48,9.20
2020,05,04,10,49,9.20
2020,05,04,10,50,9.20
2020,05,04,10,51,9.20
2020,05,04,10,52,9.30
2020,05,04,10,53,9.30
2020,05,04,10,54,9.30
2020,05,04,10,55,9.30
2020,05,04,10,56,9.40
2020,05,04,10,57,9.40
2020,05,04,10,58,9.40
2020,05,04,10,59,9.40
2020,05,04,11,00,9.30
2020,05,04,11,01,9.30
2020,05,04,11,02,9.30
2020,05,04,11,03,9.30
2020,05,04,11,04,9.30
2020,05,04,11,05,9.40
2020,05,04,11,06,9.50
2020,05,04,11,07,9.50
2020,05,04,11,08,9.50
2020,05,04,11,09,9.60
2020,05,04,11,10,9.60
2020,05,04,11,11,9.60
2020,05,04,11,12,9.60
2020,05,04,11,13,9.60
2020,05,04,11,14,9.70
2020,05,04,11,15,9.70
2020,05,04,11,16,9.70
2020,05,04,11,17,9.70
2020,05,04,11,18,9.70
2020,05,04,11,19,9.70
2020,05,04,11,20,9.70
2020,05,04,11,21,9.70
2020,05,04,11,22,9.70
2020,05,04,11,23,9.70
2020,05,04,11,24,9.80
2020,05,04,11,25,9.80
2020,05,04,11,26,9.90
2020,05,04,11,27,9.90
2020,05,04,11,28,9.90
2020,05,04,11,29,9.90
2020,05,04,11,30,9.80
2020,05,04,11,31,9.80
2020,05,04,11,32,9.90
2020,05,04,11,33,9.90
2020,05,04,11,34,9.90
2020,05,04,11,35,10.00
2020,05,04,11,36,10.00
2020,05,04,11,37,9.90
2020,05,04,11,38,9.90
2020,05,04,11,39,10.10
2020,05,04,11,40,10.10
2020,05,04,11,41,10.10
2020,05,04,11,42,10.00
2020,05,04,11,43,9.90
2020,05,04,11,44,9.90
2020,05,04,11,45,9.90
2020,05,04,11,46,9.90
2020,05,04,11,47,9.90
2020,05,04,11,48,9.90
2020,05,04,11,49,9.90
2020,05,04,11,50,9.90
2020,05,04,11,51,9.90
2020,05,04,11,52,9.90
2020,05,04,11,53,9.80
2020,05,04,11,54,9.80
2020,05,04,11,55,9.80
2020,05,04,11,56,9.80
2020,05,04,11,57,9.80
2020,05,04,11,58,9.80
2020,05,04,11,59,9.80
2020,05,04,12,00,9.90
2020,05,04,12,01,9.90
2020,05,04,12,02,9.90
2020,05,04,12,03,9.80
2020,05,04,12,04,9.70
2020,05,04,12,05,9.70
2020,05,04,12,06,9.70
2020,05,04,12,07,9.70
2020,05,04,12,08,9.60
2020,05,04,12,09,9.50
2020,05,04,12,10,9.40
2020,05,04,12,11,9.50
2020,05,04,12,12,9.50
2020,05,04,12,13,9.60
2020,05,04,12,14,9.70
2020,05,04,12,15,9.70
2020,05,04,12,16,9.70
2020,05,04,12,17,9.60
2020,05,04,12,18,9.60
2020,05,04,12,19,9.50
2020,05,04,12,20,9.40
2020,05,04,12,21,9.40
2020,05,04,12,22,9.30
2020,05,04,12,23,9.40
2020,05,04,12,24,9.40
2020,05,04,12,25,9.40
2020,05,04,12,26,9.40
2020,05,04,12,27,9.40
2020,05,04,12,28,9.40
2020,05,04,12,29,9.40
2020,05,04,12,30,9.40
2020,05,04,12,31,9.40
2020,05,04,12,32,9.40
2020,05,04,12,33,9.40
2020,05,04,12,34,9.50
2020,05,04,12,35,9.50
2020,05,04,12,36,9.60
2020,05,04,12,37,9.70
2020,05,04,12,38,9.70
2020,05,04,12,39,9.80
2020,05,04,12,40,10.00
2020,05,04,12,41,10.10
2020,05,04,12,42,10.10
2020,05,04,12,43,10.10
2020,05,04,12,44,10.20
2020,05,04,12,45,10.20
2020,05,04,12,46,10.30
2020,05,04,12,47,10.30
2020,05,04,12,48,10.40
2020,05,04,12,49,10.40
2020,05,04,12,50,10.40
2020,05,04,12,51,10.40
2020,05,04,12,52,10.60
2020,05,04,12,53,10.60
2020,05,04,12,54,10.60
2020,05,04,12,55,10.60
2020,05,04,12,56,10.70
2020,05,04,12,57,10.60
2020,05,04,12,58,10.60
2020,05,04,12,59,10.40
2020,05,04,13,00,10.40
2020,05,04,13,01,10.40
2020,05,04,13,02,10.40
2020,05,04,13,03,10.30
2020,05,04,13,04,10.20
2020,05,04,13,05,10.20
2020,05,04,13,06,10.20
2020,05,04,13,07,10.20
2020,05,04,13,08,10.30
2020,05,04,13,09,10.20
2020,05,04,13,10,10.20
2020,05,04,13,11,10.20
2020,05,04,13,12,10.20
2020,05,04,13,13,10.20
2020,05,04,13,14,10.10
2020,05,04,13,15,10.10
2020,05,04,13,16,10.10
2020,05,04,13,17,10.10
2020,05,04,13,18,10.10
2020,05,04,13,19,10.10
2020,05,04,13,20,10.10
2020,05,04,13,21,10.10
2020,05,04,13,22,10.20
2020,05,04,13,23,10.30
2020,05,04,13,24,10.40
2020,05,04,13,25,10.50
2020,05,04,13,26,10.60
2020,05,04,13,27,10.60
2020,05,04,13,28,10.70
2020,05,04,13,29,10.70
2020,05,04,13,30,10.80
2020,05,04,13,31,10.90
2020,05,04,13,32,10.90
2020,05,04,13,33,10.90
2020,05,04,13,34,10.90
2020,05,04,13,35,11.00
2020,05,04,13,36,10.90
2020,05,04,13,37,10.90
2020,05,04,13,38,10.90
2020,05,04,13,39,11.00
2020,05,04,13,40,11.10
2020,05,04,13,41,11.10
2020,05,04,13,42,11.10
2020,05,04,13,43,11.10
2020,05,04,13,44,11.10
2020,05,04,13,45,11.10
2020,05,04,13,46,11.10
2020,05,04,13,47,11.00
2020,05,04,13,48,10.90
2020,05,04,13,49,10.90
2020,05,04,13,50,10.90
2020,05,04,13,51,10.90
2020,05,04,13,52,11.00
2020,05,04,13,53,11.10
2020,05,04,13,54,11.10
2020,05,04,13,55,11.10
2020,05,04,13,56,11.10
2020,05,04,13,57,11.00
2020,05,04,13,58,11.10
2020,05,04,13,59,11.10
2020,05,04,14,00,11.10
2020,05,04,14,01,11.20
2020,05,04,14,02,11.20
2020,05,04,14,03,11.20
2020,05,04,14,04,11.20
2020,05,04,14,05,11.30
2020,05,04,14,06,11.30
2020,05,04,14,07,11.40
2020,05,04,14,08,11.40
2020,05,04,14,09,11.40
2020,05,04,14,10,11.40
2020,05,04,14,11,11.40
2020,05,04,14,12,11.40
2020,05,04,14,13,11.40
2020,05,04,14,14,11.50
2020,05,04,14,15,11.60
2020,05,04,14,16,11.60
2020,05,04,14,17,11.60
2020,05,04,14,18,11.60
2020,05,04,14,19,11.60
2020,05,04,14,20,11.60
2020,05,04,14,21,11.60
2020,05,04,14,22,11.70
2020,05,04,14,23,11.70
2020,05,04,14,24,11.70
2020,05,04,14,25,11.70
2020,05,04,14,26,11.60
2020,05,04,14,27,11.70
2020,05,04,14,28,11.70
2020,05,04,14,29,11.80
2020,05,04,14,30,11.80
2020,05,04,14,31,11.80
2020,05,04,14,32,11.80
2020,05,04,14,33,11.80
2020,05,04,14,34,11.80
2020,05,04,14,35,11.80
2020,05,04,14,36,11.80
2020,05,04,14,37,11.70
2020,05,04,14,38,11.70
2020,05,04,14,39,11.70
2020,05,04,14,40,11.70
2020,05,04,14,41,11.70
2020,05,04,14,42,11.70
2020,05,04,14,43,11.70
2020,05,04,14,44,11.60
2020,05,04,14,45,11.60
2020,05,04,14,46,11.60
2020,05,04,14,47,11.70
2020,05,04,14,48,11.70
2020,05,04,14,49,11.80
2020,05,04,14,50,11.80
2020,05,04,14,51,11.80
2020,05,04,14,52,11.80
2020,05,04,14,53,11.90
2020,05,04,14,54,12.00
2020,05,04,14,55,12.00
2020,05,04,14,56,12.10
2020,05,04,14,57,12.10
2020,05,04,14,58,12.10
2020,05,04,14,59,12.10
2020,05,04,15,00,12.20
2020,05,04,15,01,12.20
2020,05,04,15,02,12.40
2020,05,04,15,03,12.50
2020,05,04,15,04,12.50
2020,05,04,15,05,12.60
2020,05,04,15,06,12.60
2020,05,04,15,07,12.70
2020,05,04,15,08,12.70
2020,05,04,15,09,12.80
2020,05,04,15,10,12.80
2020,05,04,15,11,12.80
2020,05,04,15,12,12.80
2020,05,04,15,13,12.80
2020,05,04,15,14,12.80
2020,05,04,15,15,12.70
2020,05,04,15,16,12.70
2020,05,04,15,17,12.70
2020,05,04,15,18,12.70
2020,05,04,15,19,12.70
2020,05,04,15,20,12.80
2020,05,04,15,21,12.80
2020,05,04,15,22,12.90
2020,05,04,15,23,13.00
2020,05,04,15,24,13.00
2020,05,04,15,25,13.10
2020,05,04,15,26,13.10
2020,05,04,15,27,13.10
2020,05,04,15,28,13.10
2020,05,04,15,29,13.10
2020,05,04,15,30,13.10
2020,05,04,15,31,13.10
2020,05,04,15,32,13.20
2020,05,04,15,33,13.20
2020,05,04,15,34,13.10
2020,05,04,15,35,13.10
2020,05,04,15,36,13.00
2020,05,04,15,37,13.00
2020,05,04,15,38,13.00
2020,05,04,15,39,12.90
2020,05,04,15,40,13.00
2020,05,04,15,41,12.90
2020,05,04,15,42,12.80
2020,05,04,15,43,12.80
2020,05,04,15,44,12.70
2020,05,04,15,45,12.60
2020,05,04,15,46,12.60
2020,05,04,15,47,12.70
2020,05,04,15,48,12.80
2020,05,04,15,49,12.80
2020,05,04,15,50,12.80
2020,05,04,15,51,12.80
2020,05,04,15,52,12.80
2020,05,04,15,53,12.80
2020,05,04,15,54,12.90
2020,05,04,15,55,13.00
2020,05,04,15,56,13.10
2020,05,04,15,57,13.20
2020,05,04,15,58,13.40
2020,05,04,15,59,13.50
2020,05,04,16,00,13.50
2020,05,04,16,01,13.50
2020,05,04,16,02,13.50
2020,05,04,16,03,13.40
2020,05,04,16,04,13.40
2020,05,04,16,05,13.40
2020,05,04,16,06,13.30
2020,05,04,16,07,13.30
2020,05,04,16,08,13.30
2020,05,04,16,09,13.30
2020,05,04,16,10,13.30
2020,05,04,16,11,13.30
2020,05,04,16,12,13.20
2020,05,04,16,13,13.10
2020,05,04,16,14,13.10
2020,05,04,16,15,13.20
2020,05,04,16,16,13.10
2020,05,04,16,17,13.10
2020,05,04,16,18,13.00
2020,05,04,16,19,13.00
2020,05,04,16,20,13.00
2020,05,04,16,21,13.00
2020,05,04,16,22,13.00
2020,05,04,16,23,13.00
2020,05,04,16,24,13.00
2020,05,04,16,25,13.00
2020,05,04,16,26,13.00
2020,05,04,16,27,13.00
2020,05,04,16,28,13.00
2020,05,04,16,29,13.00
2020,05,04,16,30,13.10
2020,05,04,16,31,13.20
2020,05,04,16,32,13.30
2020,05,04,16,33,13.30
2020,05,04,16,34,13.30
2020,05,04,16,35,13.30
2020,05,04,16,36,13.40
2020,05,04,16,37,13.40
2020,05,04,16,38,13.40
2020,05,04,16,39,13.40
2020,05,04,16,40,13.40
2020,05,04,16,41,13.40
2020,05,04,16,42,13.40
2020,05,04,16,43,13.30
2020,05,04,16,44,13.30
2020,05,04,16,45,13.40
2020,05,04,16,46,13.50
2020,05,04,16,47,13.50
2020,05,04,16,48,13.60
2020,05,04,16,49,13.60
2020,05,04,16,50,13.60
2020,05,04,16,51,13.60
2020,05,04,16,52,13.60
2020,05,04,16,53,13.70
2020,05,04,16,54,13.60
2020,05,04,16,55,13.60
2020,05,04,16,56,13.60
2020,05,04,16,57,13.60
2020,05,04,16,58,13.60
2020,05,04,16,59,13.60
2020,05,04,17,00,13.70
2020,05,04,17,01,13.70
2020,05,04,17,02,13.80
2020,05,04,17,03,13.90
2020,05,04,17,04,13.90
2020,05,04,17,05,14.00
2020,05,04,17,06,14.00
2020,05,04,17,07,14.10
2020,05,04,17,08,14.10
2020,05,04,17,09,14.10
2020,05,04,17,10,14.10
2020,05,04,17,11,14.00
2020,05,04,17,12,14.00
2020,05,04,17,13,14.00
2020,05,04,17,14,14.00
2020,05,04,17,15,14.00
2020,05,04,17,16,14.10
2020,05,04,17,17,14.20
2020,05,04,17,18,14.20
2020,05,04,17,19,14.20
2020,05,04,17,20,14.20
2020,05,04,17,21,14.20
2020,05,04,17,22,14.20
2020,05,04,17,23,14.20
2020,05,04,17,24,14.20
2020,05,04,17,25,14.20
2020,05,04,17,26,14.20
2020,05,04,17,27,14.20
2020,05,04,17,28,14.30
2020,05,04,17,29,14.30
2020,05,04,17,30,14.40
2020,05,04,17,31,14.40
2020,05,04,17,32,14.40
2020,05,04,17,33,14.50
2020,05,04,17,34,14.50
2020,05,04,17,35,14.50
2020,05,04,17,36,14.50
2020,05,04,17,37,14.50
2020,05,04,17,38,14.60
2020,05,04,17,39,14.60
2020,05,04,17,40,14.70
2020,05,04,17,41,14.80
2020,05,04,17,42,14.80
2020,05,04,17,43,14.80
2020,05,04,17,44,14.90
2020,05,04,17,45,14.90
2020,05,04,17,46,15.00
2020,05,04,17,47,15.10
2020,05,04,17,48,15.10
2020,05,04,17,49,15.10
2020,05,04,17,50,15.10
2020,05,04,17,51,15.10
2020,05,04,17,52,15.10